Lapse_Rate
6.4 6.6 6.7 6.7 6.8 6.7 6.5 6.4 6.4 6.2 6.1 6.1 6.1 6.0 5.9 5.8 5.9 6.0 6.6 6.4 6.2 6.4 6.2 6.1 6.0 5.9 5.7 5.6 5.6 5.5 5.5 5.4 5.4 5.5 5.4 5.4 5.5 5.4 5.3 5.3 5.4 5.3 5.3
6.5 6.6 6.6 6.7 6.8 6.7 6.7 6.4 6.5 6.3 6.3 6.1 6.2 6.0 6.0 6.2 6.1 6.1 6.6 6.3 6.1 6.2 6.2 6.1 6.0 5.9 5.8 5.6 5.7 5.6 5.6 5.6 5.3 5.5 5.4 5.4 5.6 5.5 5.3 5.3 5.4 5.1 5.3
6.5 6.5 6.5 6.6 6.7 6.6 6.7 6.6 6.5 6.5 6.4 6.3 6.1 6.2 6.2 6.2 6.2 6.2 6.1 6.3 6.3 6.4 6.1 6.2 6.0 5.9 5.8 5.6 5.7 5.6 5.5 5.6 5.4 5.4 5.3 5.4 5.5 5.6 5.4 5.2 5.2 5.2 5.2
6.3 6.5 6.4 6.5 6.5 6.6 6.5 6.7 6.4 6.6 6.5 6.4 6.3 6.2 6.1 6.2 6.1 6.0 5.9 6.4 6.6 6.1 6.2 6.2 6.2 6.1 5.9 5.8 5.7 5.6 5.4 5.3 5.4 5.4 5.7 4.6 5.4 5.6 5.6 5.4 5.2 5.2 5.3
5.4 6.1 6.4 6.4 6.5 6.6 6.5 6.6 6.4 6.5 6.5 6.5 6.5 6.4 6.3 6.2 6.1 6.2 6.2 6.3 6.2 6.2 6.1 6.2 6.1 6.2 6.0 5.8 5.8 5.7 5.5 5.4 5.4 5.3 5.4 4.8 5.4 5.6 5.6 5.6 5.5 5.4 5.2
5.7 6.3 6.4 6.4 6.5 6.5 6.5 6.7 6.6 6.5 6.5 6.5 6.5 6.5 6.4 6.2 6.2 6.2 6.3 6.3 6.3 6.3 6.2 6.2 6.0 5.9 6.1 5.8 5.7 5.7 5.6 5.5 5.6 5.5 5.1 5.5 5.8 5.6 5.7 5.6 5.7 5.5 5.4
5.8 6.2 6.3 6.6 6.7 6.6 6.5 6.5 6.6 6.5 6.5 6.4 6.5 6.5 6.4 6.3 6.3 6.2 6.2 6.2 6.3 6.3 6.4 6.0 5.8 5.7 5.8 5.9 5.6 5.4 5.5 5.5 5.6 5.6 5.6 5.6 5.5 5.6 5.7 5.7 5.7 5.7 5.6
5.5 6.6 6.7 6.8 6.9 6.8 6.6 6.6 6.5 6.4 6.5 6.4 6.3 6.3 6.4 6.3 6.1 6.2 6.2 6.2 6.3 6.1 6.1 6.2 5.9 5.7 5.6 5.9 5.8 5.7 5.5 5.4 5.6 4.8 5.6 5.7 5.7 5.7 5.7 5.7 5.7 5.7 5.7
5.4 6.5 6.6 6.7 6.7 6.6 6.7 6.7 6.5 6.4 6.3 6.3 6.3 6.3 6.4 6.3 6.1 6.1 6.2 6.1 6.0 6.1 6.1 6.1 6.2 6.1 5.8 5.7 5.8 5.7 5.7 5.7 5.8 5.0 5.5 5.5 5.6 5.6 5.7 5.8 5.7 5.6 5.7
5.2 6.5 6.8 6.6 6.6 6.5 6.5 6.6 6.6 6.6 6.4 6.3 6.3 6.2 6.3 6.3 6.2 6.0 6.0 6.2 6.0 6.0 6.0 6.2 6.1 6.1 6.1 5.9 5.9 5.9 5.7 5.7 5.8 5.3 5.2 5.4 5.6 5.8 5.8 5.6 5.7 5.7 5.7
5.6 5.3 6.7 6.7 6.6 6.4 6.5 6.5 6.5 6.6 6.6 6.5 6.4 6.3 6.4 6.2 6.1 6.0 6.0 6.1 6.1 6.2 6.0 6.1 6.1 6.2 6.2 6.0 6.1 6.1 6.1 5.8 5.8 5.6 5.5 5.4 5.7 5.7 5.7 5.8 5.7 5.7 5.7
5.5 5.4 6.6 6.7 6.7 6.4 6.5 6.3 6.5 6.5 6.5 6.5 6.5 6.5 6.3 6.0 6.6 7.1 6.1 6.0 6.0 6.0 6.1 5.9 6.0 6.2 6.2 6.1 6.1 6.0 6.1 6.2 5.9 6.0 5.8 5.6 5.7 5.7 5.7 5.8 5.8 5.9 5.9
5.9 5.4 6.4 6.4 6.3 6.7 6.1 6.5 6.2 6.7 6.4 6.2 6.3 6.3 6.4 5.8 5.9 5.7 5.8 5.7 5.7 5.8 5.7 5.7 5.9 6.2 6.2 6.1 6.2 6.2 6.2 6.0 5.5 5.6 5.8 5.7 5.8 5.8 5.8 5.9 5.9 5.8 5.9
6.8 5.6 5.8 6.2 6.4 6.4 5.9 6.2 6.2 5.7 6.0 5.7 5.7 5.9 6.0 6.0 5.8 5.6 5.5 5.5 5.6 5.5 5.5 4.6 6.0 5.8 5.7 6.1 5.6 5.9 6.0 6.1 5.9 5.7 5.4 5.5 5.8 6.0 6.0 5.8 5.7 5.8 5.8
7.2 6.4 6.2 6.6 6.5 6.6 6.2 6.2 6.0 5.7 5.6 5.6 5.5 5.5 5.4 5.3 5.4 5.4 5.2 5.4 5.4 5.7 5.4 5.4 5.4 5.6 5.4 5.7 5.8 5.9 5.9 5.9 5.6 5.4 5.4 6.0 5.6 5.7 5.8 5.8 5.6 5.5 5.5
6.5 7.0 7.0 6.7 6.6 6.3 6.7 6.1 5.7 5.8 5.7 5.3 5.1 5.1 5.2 5.2 5.4 5.2 5.2 5.4 5.3 5.1 5.3 5.2 5.4 5.6 5.6 5.5 5.6 5.6 5.7 5.7 5.7 5.7 5.4 5.9 5.6 5.5 5.5 5.5 5.5 5.4 5.6
6.4 7.0 6.3 6.1 6.3 6.2 6.4 5.9 5.8 5.8 5.2 4.9 4.8 4.9 4.8 5.2 5.3 5.2 5.2 5.2 4.6 4.9 5.5 5.1 5.4 5.5 5.6 5.5 5.6 5.6 5.5 5.5 5.5 5.7 5.6 5.6 5.6 5.5 5.3 5.3 5.4 5.4 5.5
7.3 5.8 5.7 5.5 6.2 6.2 6.0 5.9 5.6 5.4 5.4 5.2 5.2 4.9 5.0 5.1 5.2 5.2 5.3 5.4 5.1 5.2 5.3 5.3 5.4 5.5 5.6 5.4 5.4 5.3 5.4 5.5 5.4 5.5 5.5 5.5 5.5 5.6 5.5 5.5 5.6 5.6 5.7
7.0 5.8 5.9 5.3 5.7 6.1 6.1 5.6 5.1 5.0 5.1 4.9 5.1 5.2 5.5 5.4 5.0 5.3 5.4 5.3 5.2 5.3 5.4 5.4 5.5 5.4 5.3 5.2 5.3 5.2 5.3 5.3 5.3 5.3 5.3 5.4 5.3 5.0 5.0 5.1 5.3 5.5 5.6
7.4 6.6 5.8 5.8 6.1 6.0 6.3 5.4 5.0 4.9 4.9 4.9 5.0 5.2 4.9 5.0 5.3 5.4 5.4 5.5 5.5 5.4 5.5 5.4 5.4 5.3 5.3 5.3 5.3 4.9 5.6 5.6 5.4 5.5 5.3 5.6 5.6 5.0 5.2 5.2 5.6 5.4 5.3
7.6 6.2 6.0 6.6 6.7 6.1 6.1 5.8 5.3 5.2 5.1 5.0 5.3 5.0 4.8 4.9 5.2 5.4 5.5 5.4 5.4 5.3 5.3 5.3 5.3 5.5 5.5 5.3 5.4 5.2 5.2 5.5 5.4 5.4 5.5 5.6 5.4 5.1 5.2 5.4 5.4 5.4 5.3
6.6 6.8 6.2 6.5 6.5 6.3 6.5 6.2 5.7 5.4 5.2 4.7 4.8 4.9 4.8 4.9 5.2 5.3 5.3 5.3 5.4 5.4 5.3 5.3 5.4 5.3 5.3 5.1 5.1 5.2 5.2 5.1 5.2 5.5 5.2 4.8 5.4 5.3 5.3 5.4 5.4 5.3 5.4
7.0 7.0 7.0 6.7 6.6 6.7 6.5 6.2 6.0 5.6 5.7 5.5 5.1 4.8 4.7 5.0 5.3 5.6 5.6 5.4 5.4 5.2 5.3 5.4 5.3 5.2 5.2 5.4 5.3 5.3 5.2 5.2 5.2 5.0 4.9 4.9 5.2 5.5 5.4 5.2 5.6 5.2 5.1
7.3 7.1 7.2 6.5 6.5 6.4 6.4 6.2 6.2 6.3 5.8 5.4 5.1 4.9 4.9 5.4 5.7 5.5 5.4 5.4 5.5 5.4 5.5 5.3 5.2 5.3 5.3 5.3 5.4 5.4 5.4 5.2 5.3 5.2 5.1 5.2 5.1 5.3 5.5 5.3 5.4 4.9 5.3
7.7 7.6 7.2 6.9 6.5 6.7 6.8 6.6 6.3 6.2 6.5 5.8 5.0 5.4 5.1 5.6 5.6 5.4 5.3 5.4 5.4 5.3 5.1 5.2 5.2 5.2 5.3 5.3 5.4 5.4 5.4 5.4 5.4 5.2 5.5 5.7 5.4 5.4 5.4 5.4 5.3 5.2 5.2
7.8 7.6 7.7 7.0 6.8 6.9 7.0 6.7 6.5 6.6 6.8 6.6 5.8 5.6 6.2 5.9 5.5 5.3 5.3 5.3 5.2 5.2 5.3 5.2 5.2 5.3 5.4 5.4 5.5 5.5 5.4 5.4 5.5 5.5 5.3 5.5 5.4 5.5 5.6 5.4 5.2 5.0 5.0
Wind_Speed
18 19 14 12 10 11 11 13 12 15 15 15 14 13 13 12 13 11 10 10 9 7 6 7 6 6 7 8 10 10 10 11 11 11 10 9 12 10 8 6 9 14 11
20 20 14 13 12 11 11 12 12 13 13 13 14 12 12 12 13 12 9 8 7 5 5 5 6 8 9 10 9 9 9 9 10 10 11 13 11 8 7 7 13 15 12
19 20 17 12 12 11 12 12 11 11 13 12 11 11 12 11 12 12 10 8 4 2 2 4 6 7 7 9 9 9 9 8 9 12 14 13 14 7 7 10 12 13 9
19 19 17 13 12 11 12 12 11 10 13 13 13 11 11 11 12 10 9 8 7 4 1 5 6 7 8 8 7 9 8 7 7 6 10 15 17 9 7 8 11 11 10
15 21 20 15 13 11 10 11 11 10 12 13 13 11 11 9 9 8 7 6 7 7 5 3 6 7 7 7 8 8 7 6 5 6 2 10 12 12 10 9 10 8 4
17 22 20 16 14 13 11 10 9 10 10 11 11 11 9 9 8 6 6 5 6 8 7 4 4 7 8 8 9 8 8 9 10 9 5 7 15 15 9 5 7 8 7
21 19 18 16 15 13 13 12 11 9 9 9 9 8 8 7 6 5 5 5 5 6 7 8 6 7 9 9 9 10 10 10 11 7 12 9 14 13 8 6 7 7 7
18 20 18 15 14 13 12 12 12 11 9 8 8 9 8 7 6 6 5 4 4 4 5 6 9 8 9 10 10 10 10 12 13 8 5 9 16 10 8 7 7 7 6
14 14 16 14 13 11 11 12 12 11 10 9 8 7 8 7 7 6 5 5 5 3 3 5 7 9 9 11 10 10 10 13 13 5 6 14 20 13 10 9 9 8 7
11 12 15 15 14 13 13 10 10 10 9 10 8 8 8 6 5 7 7 8 6 4 3 4 6 7 11 11 11 11 11 10 11 9 9 15 18 13 11 10 8 10 8
8 11 12 10 11 11 11 13 10 9 9 8 9 8 7 12 15 14 10 7 7 6 5 5 5 7 10 11 11 11 11 15 12 2 3 21 18 13 12 11 11 10 9
11 11 13 11 13 8 12 14 12 13 14 14 14 13 12 5 5 4 10 8 6 8 8 7 6 8 11 14 13 12 14 14 9 10 10 15 16 14 12 12 12 12 10
11 10 13 8 10 11 5 11 6 12 13 10 5 9 6 5 11 4 5 5 11 14 11 11 12 12 14 8 8 14 15 14 15 14 15 18 17 15 14 13 14 14 14
13 10 10 7 7 7 2 7 10 2 8 9 6 3 1 4 7 5 5 7 10 8 5 10 15 6 10 16 11 9 8 10 8 6 17 17 16 13 14 14 14 16 15
11 8 8 8 8 6 2 4 5 2 3 5 3 5 4 2 1 2 6 8 11 9 4 10 6 5 6 5 11 16 13 10 11 11 13 19 17 16 16 17 16 16 17
11 8 10 8 7 9 7 4 3 4 6 3 4 7 5 3 2 2 5 8 13 15 13 8 5 6 5 7 8 10 7 8 10 10 8 15 20 20 18 17 18 18 19
12 10 5 5 7 9 8 8 8 8 8 7 8 6 5 4 2 5 8 11 11 15 11 9 9 10 6 6 6 5 6 10 13 11 11 10 16 20 21 20 18 18 20
11 17 11 7 1 3 6 5 3 6 7 4 5 6 8 7 11 11 7 11 15 7 4 5 6 7 7 6 5 8 5 9 8 10 10 13 8 15 22 23 21 19 20
18 11 9 9 4 2 10 4 5 1 3 2 4 5 7 12 13 11 11 12 11 9 4 6 8 5 6 6 7 8 9 6 6 9 11 14 13 14 11 22 23 21 21
14 12 7 8 1 3 5 4 4 4 3 3 5 7 9 10 16 13 12 8 9 7 4 7 5 5 7 10 11 7 8 6 6 6 10 12 13 16 15 11 17 19 23
9 10 7 9 5 2 3 3 4 2 2 2 5 5 9 11 13 11 6 7 6 5 6 6 8 10 7 6 6 8 5 9 10 7 7 9 10 14 18 14 12 17 19
11 8 7 8 4 5 2 2 2 5 3 1 4 7 7 11 7 3 3 5 5 4 7 8 6 6 6 6 5 5 5 8 6 10 7 7 11 9 10 14 13 9 6
14 7 8 7 4 6 4 6 5 6 5 2 3 3 5 9 3 2 3 4 4 6 8 6 5 8 7 5 9 5 3 3 3 6 7 1 6 3 7 7 6 3 15
12 11 10 10 9 7 5 5 6 2 2 2 1 0 1 4 4 3 4 5 5 8 8 6 3 5 5 7 4 6 9 4 3 2 2 3 3 4 6 6 8 9 8
7 10 9 10 9 9 6 4 5 2 3 3 1 1 4 2 3 7 5 3 5 4 6 7 6 6 4 5 6 5 4 7 8 3 2 3 7 4 5 7 8 11 15
8 9 11 11 10 10 8 5 1 1 4 2 1 3 4 1 4 5 4 4 4 4 5 4 4 4 3 4 5 5 5 3 5 6 4 6 6 5 6 6 8 10 15
Wind_Direction
113 121 122 120 118 125 129 137 140 147 149 150 147 144 142 134 125 122 106 112 113 120 122 119 112 109 125 96 115 113 107 105 107 109 106 106 108 112 113 112 154 103 106
111 126 127 123 121 116 124 133 136 148 153 156 150 149 145 135 125 121 120 96 98 111 113 134 142 120 125 122 116 112 112 118 124 128 122 107 107 106 91 43 75 105 108
117 122 138 127 128 122 117 120 132 142 154 152 153 146 146 134 126 134 145 154 103 23 127 143 156 132 125 114 119 120 118 126 140 161 167 128 108 109 98 92 98 110 111
122 139 133 130 130 130 125 121 123 128 153 154 152 146 144 139 138 143 158 161 159 201 185 167 154 135 137 129 131 125 122 147 185 185 217 162 117 121 105 97 100 110 109
135 115 123 137 134 130 127 127 127 125 132 148 148 150 152 153 150 150 166 187 189 205 175 187 161 145 142 138 133 136 134 161 211 220 306 62 126 130 120 132 136 125 170
94 114 130 141 142 140 135 134 133 134 134 138 147 157 163 168 165 170 183 196 209 208 203 187 179 165 153 153 145 146 150 195 208 212 66 109 74 129 137 154 104 105 107
113 123 137 146 149 149 150 148 146 145 144 147 153 163 169 176 178 174 188 188 199 215 207 196 191 174 172 164 163 158 176 220 246 161 165 145 113 128 142 149 134 141 132
137 139 139 147 152 155 158 162 160 156 155 161 165 172 175 183 165 172 185 198 212 216 213 203 199 181 182 174 172 176 191 228 219 159 142 123 122 132 144 158 171 162 161
119 113 153 159 156 158 168 174 170 169 164 171 174 187 174 189 179 183 200 199 215 217 207 194 209 201 195 184 185 186 199 239 273 125 230 146 141 152 169 169 171 178 179
148 154 147 147 158 172 164 180 174 176 181 178 185 195 201 185 194 205 213 206 208 212 211 197 202 204 199 192 193 196 209 247 264 227 177 122 145 159 180 181 190 189 190
176 154 115 152 169 181 176 168 178 182 201 195 194 191 208 225 179 187 192 163 194 215 217 205 199 196 196 198 197 201 209 229 215 253 310 141 148 168 188 194 198 195 202
179 175 143 187 158 178 207 155 198 181 197 201 195 169 214 219 204 35 129 160 197 216 224 212 196 190 201 189 197 201 225 237 206 194 158 163 161 177 195 204 205 210 213
183 181 157 153 133 192 216 169 192 189 199 197 274 159 268 319 17 352 44 195 210 206 222 198 196 205 201 225 223 195 214 238 223 200 169 172 166 188 199 208 209 211 215
180 190 140 159 166 182 215 201 190 320 46 55 186 204 237 27 13 348 301 298 273 256 215 241 267 213 201 192 221 262 260 251 289 289 156 163 163 191 213 219 220 216 218
170 175 117 186 207 197 197 12 11 5 92 111 129 223 179 68 176 300 285 272 288 275 268 275 225 263 204 229 215 204 208 264 256 247 157 161 169 187 210 222 227 227 224
162 138 146 194 194 221 159 190 210 219 80 134 226 210 198 191 195 256 269 244 245 229 210 239 303 258 226 222 234 251 246 253 240 281 269 173 179 189 204 224 232 231 228
147 152 66 232 204 222 207 199 214 143 204 197 210 235 240 252 258 251 262 266 259 303 162 200 234 249 262 243 230 205 265 231 250 196 245 274 192 201 199 207 225 232 228
91 67 249 248 176 314 278 235 196 213 203 173 236 228 238 248 247 259 250 252 267 295 211 208 232 234 241 283 283 280 237 230 231 255 253 245 224 208 211 210 213 220 222
73 187 233 237 209 355 320 250 223 141 163 81 295 232 225 240 245 240 241 255 261 258 238 233 238 262 222 243 244 229 252 232 217 233 237 240 231 254 197 205 211 214 217
140 185 207 254 86 35 291 335 67 69 11 161 246 229 237 250 255 247 243 247 245 242 228 244 254 260 245 222 235 230 218 236 245 225 244 247 203 229 242 217 204 215 216
164 137 206 246 35 268 266 4 131 157 188 234 240 253 251 247 247 221 223 231 232 272 254 249 240 237 269 288 312 270 258 220 246 222 234 236 222 205 228 235 237 218 199
213 202 230 170 129 230 185 128 96 138 156 42 320 298 269 261 236 255 237 232 231 260 246 254 270 272 270 252 237 259 264 247 222 237 237 225 217 228 226 225 236 218 259
218 178 224 134 187 186 147 117 120 140 123 178 244 247 225 213 206 262 287 293 295 253 273 206 246 250 259 224 222 240 281 248 244 187 204 50 25 331 258 307 25 310 226
206 159 176 162 150 143 200 135 166 185 161 83 224 278 282 4 336 312 296 294 288 298 336 320 316 272 272 265 269 261 251 264 292 231 1 83 66 23 340 313 9 25 30
159 157 165 163 153 149 159 162 195 240 135 123 33 333 297 259 330 347 341 353 330 328 293 283 278 269 252 252 245 248 238 247 242 254 174 138 96 56 21 20 35 35 68
178 156 158 150 147 153 152 128 165 139 126 128 78 263 293 286 53 339 14 1 338 313 315 307 304 266 280 244 245 229 227 238 245 227 224 166 120 68 50 33 47 46 65